Weather History for Robinson, IL

Change the Weather History Date:

Sunday, May 19, 2013

  Actual Average (KLWV) Record (KLWV)
Temperature  
Mean Temperature 74 °F 67 °F  
Max Temperature 88 °F 78 °F 93 °F (1998)
Min Temperature 60 °F 56 °F 39 °F (2002)
Degree Days  
Heating Degree Days 0 2  
Month to date heating degree days 65  
Since 1 July heating degree days 4656  
Cooling Degree Days 9 4  
Month to date cooling degree days 50  
Year to date cooling degree days 76  
Growing Degree Days 24 (Base 50)    
Moisture  
Dew Point 66 °F    
Average Humidity 73    
Maximum Humidity 93    
Minimum Humidity 52    
Precipitation  
Precipitation 0.00 in 0.19 in 1.41 in (2005)
Month to date precipitation 3.83  
Year to date precipitation 15.81  
Sea Level Pressure  
Sea Level Pressure 29.92 in    
Wind  
Wind Speed 5 mph (SE)    
Max Wind Speed 14 mph    
Max Gust Speed 18 mph    
Visibility 6 miles    
Events Fog    
T = Trace of Precipitation, MM = Missing Value Source: NWS Daily Summary

Daily Weather History Graph

Daily Weather History Graph

Search for Another Location

Airport:

Trip Planner

Search our weather history database for the weather conditions in past years. The results will help you decide how hot, cold, wet, or windy it might be!

Date:

Astronomy

May. 19, 2013 Rise Set
Actual Time 5:34 AM CDT 8:00 PM CDT
Civil Twilight 5:03 AM CDT 8:30 PM CDT
Nautical Twilight 4:26 AM CDT 9:08 PM CDT
Astronomical Twilight 3:44 AM CDT 9:50 PM CDT
Moon 2:07 PM CDT (5/19) 1:54 AM CDT (5/19)
Length of Visible Light 15h 27m
Length of Day
14h 26m
Waxing Gibbous, 65% of the Moon is Illuminated
May 19
Waxing Gibbous
May 24
Full
May 31
Last Quarter
Jun 8
New
Jun 16
First Quarter

Hourly Weather History & Observations

Time (CDT) Temp. Heat Index Dew Point Humidity Pressure Visibility Wind Dir Wind Speed Gust Speed Precip Events Conditions
12:15 AM 66.2 °F - 63.1 °F 90% 29.95 in 5.0 mi SE 3.5 mph - N/A   Clear
12:35 AM 65.3 °F - 62.2 °F 90% 29.96 in 4.0 mi South 4.6 mph - N/A   Clear
12:55 AM 65.5 °F - 62.6 °F 90% 29.96 in 3.0 mi Calm Calm - N/A   Clear
1:15 AM 64.8 °F - 61.9 °F 90% 29.96 in 3.0 mi SSE 3.5 mph - N/A   Clear
1:35 AM 63.5 °F - 60.6 °F 90% 29.96 in 2.0 mi Calm Calm - N/A   Clear
1:55 AM 65.3 °F - 62.6 °F 91% 29.96 in 1.8 mi Calm Calm - N/A   Mist
2:15 AM 65.8 °F - 63.1 °F 91% 29.96 in 2.5 mi Calm Calm - N/A   Clear
2:35 AM 63.7 °F - 61.0 °F 91% 29.96 in 0.5 mi Calm Calm - N/A Fog Fog
2:55 AM 64.2 °F - 61.5 °F 91% 29.96 in 0.5 mi Calm Calm - N/A Fog Fog
3:15 AM 62.8 °F - 60.3 °F 91% 29.96 in 0.2 mi Calm Calm - N/A Fog Fog
3:35 AM 63.5 °F - 60.8 °F 91% 29.96 in 0.2 mi ENE 3.5 mph - N/A Fog Fog
3:55 AM 62.6 °F - 60.1 °F 91% 29.96 in 0.2 mi Calm Calm - N/A Fog Fog
4:15 AM 61.2 °F - 58.8 °F 92% 29.96 in 0.2 mi Calm Calm - N/A Fog Fog
4:35 AM 60.4 °F - 57.9 °F 91% 29.95 in 0.2 mi Calm Calm - N/A Fog Fog
4:55 AM 60.3 °F - 57.7 °F 91% 29.95 in 0.2 mi Calm Calm - N/A Fog Fog
5:15 AM 60.1 °F - 57.7 °F 92% 29.96 in 0.2 mi Calm Calm - N/A Fog Fog
5:35 AM 60.6 °F - 58.1 °F 91% 29.96 in 0.2 mi Calm Calm - N/A Fog Fog
5:55 AM 60.8 °F - 58.3 °F 91% 29.96 in 0.2 mi Calm Calm - N/A Fog Fog
6:15 AM 61.2 °F - 59.0 °F 93% 29.97 in 0.2 mi Calm Calm - N/A Fog Fog
6:35 AM 62.6 °F - 60.3 °F 92% 29.98 in 0.2 mi Calm Calm - N/A Fog Fog
6:55 AM 64.8 °F - 62.4 °F 92% 29.97 in 0.2 mi ENE 3.5 mph - N/A Fog Fog
7:15 AM 66.2 °F - 63.5 °F 91% 29.96 in 0.2 mi ENE 6.9 mph - N/A Fog Fog
7:35 AM 67.5 °F - 64.9 °F 92% 29.96 in 1.2 mi East 4.6 mph - N/A   Overcast
7:55 AM 68.5 °F - 66.0 °F 92% 29.96 in 3.0 mi East 4.6 mph - N/A   Scattered Clouds
8:15 AM 70.2 °F - 67.5 °F 91% 29.97 in 5.0 mi East 3.5 mph - N/A   Clear
8:35 AM 72.9 °F - 67.8 °F 84% 29.97 in 7.0 mi ESE 6.9 mph - N/A   Clear
8:55 AM 75.2 °F - 66.9 °F 75% 29.97 in 10.0 mi ESE 5.8 mph - N/A   Clear
9:15 AM 76.3 °F - 66.7 °F 72% 29.98 in 10.0 mi SE 5.8 mph - N/A   Mostly Cloudy
9:35 AM 78.4 °F - 66.9 °F 68% 29.96 in 10.0 mi ESE 10.4 mph - N/A   Scattered Clouds
9:55 AM 79.9 °F - 66.9 °F 64% 29.96 in 10.0 mi ESE 8.1 mph - N/A   Clear
10:15 AM 80.6 °F 82.8 °F 66.4 °F 62% 29.97 in 10.0 mi ESE 6.9 mph - N/A   Clear
10:35 AM 81.1 °F 83.2 °F 66.2 °F 60% 29.96 in 10.0 mi SE 9.2 mph - N/A   Clear
10:55 AM 82.2 °F 84.6 °F 66.6 °F 59% 29.96 in 10.0 mi ESE 9.2 mph - N/A   Clear
11:15 AM 82.9 °F 85.2 °F 66.4 °F 57% 29.96 in 10.0 mi East 9.2 mph - N/A   Clear
11:35 AM 84.2 °F 86.1 °F 65.5 °F 53% 29.94 in 10.0 mi SE 13.8 mph - N/A   Clear
11:55 AM 84.2 °F 86.6 °F 66.6 °F 55% 29.94 in 10.0 mi SE 11.5 mph 16.1 mph N/A   Clear
12:15 PM 85.3 °F 87.9 °F 66.9 °F 54% 29.94 in 10.0 mi SE 10.4 mph - N/A   Clear
12:35 PM 85.6 °F 88.5 °F 67.1 °F 54% 29.93 in 10.0 mi SE 9.2 mph 16.1 mph N/A   Clear
12:55 PM 85.8 °F 88.5 °F 66.7 °F 53% 29.93 in 10.0 mi SSE 11.5 mph 16.1 mph N/A   Mostly Cloudy
1:15 PM 84.4 °F 87.3 °F 67.5 °F 57% 29.93 in 10.0 mi SSE 11.5 mph - N/A   Overcast
1:35 PM 85.6 °F 89.1 °F 68.4 °F 56% 29.91 in 10.0 mi SE 9.2 mph - N/A   Mostly Cloudy
2:15 PM 86.4 °F 90.0 °F 68.7 °F 55% 29.89 in 10.0 mi SSE 5.8 mph - N/A   Scattered Clouds
2:35 PM 86.7 °F 90.6 °F 68.9 °F 55% 29.89 in 10.0 mi SSE 8.1 mph - N/A   Scattered Clouds
2:55 PM 86.9 °F 91.0 °F 68.9 °F 55% 29.90 in 10.0 mi ESE 6.9 mph - N/A   Scattered Clouds
3:15 PM 87.4 °F 91.5 °F 68.7 °F 54% 29.88 in 10.0 mi South 9.2 mph - N/A   Scattered Clouds
3:35 PM 88.5 °F 92.7 °F 68.9 °F 52% 29.87 in 10.0 mi SSE 8.1 mph - N/A   Scattered Clouds
3:55 PM 88.0 °F 92.1 °F 68.7 °F 53% 29.86 in 7.0 mi SE 11.5 mph - N/A   Clear
4:15 PM 88.0 °F 92.1 °F 68.7 °F 53% 29.86 in 10.0 mi SE 11.5 mph 18.4 mph N/A   Scattered Clouds
4:35 PM 88.2 °F 92.9 °F 69.4 °F 54% 29.86 in 10.0 mi SE 11.5 mph - N/A   Mostly Cloudy
4:55 PM 88.2 °F 92.5 °F 69.1 °F 53% 29.85 in 10.0 mi SE 11.5 mph - N/A   Scattered Clouds
5:15 PM 88.2 °F 92.1 °F 68.5 °F 52% 29.85 in 10.0 mi ESE 11.5 mph - N/A   Scattered Clouds
5:35 PM 88.2 °F 92.5 °F 68.9 °F 53% 29.84 in 10.0 mi SE 13.8 mph - N/A   Mostly Cloudy
5:55 PM 87.3 °F 91.2 °F 68.5 °F 54% 29.84 in 7.0 mi SE 13.8 mph - N/A   Scattered Clouds
6:15 PM 86.9 °F 91.3 °F 69.3 °F 56% 29.83 in 10.0 mi SE 10.4 mph - N/A   Scattered Clouds
6:35 PM 86.0 °F 90.7 °F 70.0 °F 59% 29.83 in 7.0 mi SE 12.7 mph - N/A   Clear
6:55 PM 84.9 °F 89.4 °F 70.0 °F 61% 29.83 in 7.0 mi SE 8.1 mph - N/A   Clear
7:15 PM 83.7 °F 88.0 °F 70.2 °F 64% 29.83 in 7.0 mi SE 11.5 mph - N/A   Clear
7:35 PM 82.8 °F 86.9 °F 70.2 °F 66% 29.84 in 7.0 mi SE 9.2 mph - N/A   Clear
7:55 PM 81.7 °F 85.6 °F 70.5 °F 69% 29.84 in 7.0 mi SE 6.9 mph - N/A   Clear
8:15 PM 81.0 °F 84.7 °F 70.7 °F 71% 29.84 in 7.0 mi SE 5.8 mph - N/A   Clear
8:35 PM 79.7 °F - 70.7 °F 74% 29.85 in 7.0 mi SE 3.5 mph - N/A   Clear
8:55 PM 78.1 °F - 70.5 °F 77% 29.85 in 7.0 mi SE 4.6 mph - N/A   Clear
9:15 PM 77.5 °F - 70.7 °F 79% 29.86 in 5.0 mi SE 5.8 mph - N/A   Haze
9:35 PM 77.0 °F - 70.7 °F 81% 29.86 in 5.0 mi SSE 5.8 mph - N/A   Haze
9:55 PM 77.2 °F - 70.7 °F 80% 29.87 in 5.0 mi SSE 5.8 mph - N/A   Haze
10:15 PM 77.0 °F - 70.7 °F 81% 29.88 in 5.0 mi SSE 6.9 mph - N/A   Haze
10:35 PM 77.4 °F - 70.5 °F 79% 29.88 in 7.0 mi South 8.1 mph - N/A   Clear
11:15 PM 77.7 °F - 68.0 °F 72% 29.88 in 10.0 mi SSE 8.1 mph - N/A   Clear
11:35 PM 76.5 °F - 68.0 °F 75% 29.88 in 10.0 mi SSE 5.8 mph - N/A   Clear
11:55 PM 76.3 °F - 68.0 °F 75% 29.89 in 10.0 mi SSE 8.1 mph - N/A   Clear